Regional Weather Roundup
Issued by NWS Newport/Morehead, NC

Current Version | Previous Version | Text Only | Print | Product List | Glossary Off
Versions: 1 2 3 4 5 6 7 8 9 10 11 12 13 14 15 16 17 18 19 20 21 22 23 24 25 26 27 28 29 30 31 32 33 34 35 36 37 38 39 40 41 42 43 44 45 46 47 48 49 50
439 ASUS42 KMHX 270313 RWRMHX WEATHER ROUNDUP FOR EASTERN NORTH CAROLINA NATIONAL WEATHER SERVICE NEWPORT/MOREHEAD CITY NC 1100 PM EDT FRI AUG 26 2016 NOTE: "FAIR" INDICATES FEW OR NO CLOUDS BELOW 12,000 FEET WITH NO SIGNIFICANT WEATHER AND/OR OBSTRUCTIONS TO VISIBILITY NCZ015>017-031-032-045>047-102-103-270400- NORTH COAST CITY SKY/WX TMP DP RH WIND PRES REMARKS EDENTON CLEAR 82 74 76 S7 30.08R ELIZABETH CITY CLEAR 80 74 81 S8 30.07R KITTY HAWK CLEAR 80 76 88 SW5 30.06F MANTEO CLEAR 81 74 79 SW10 30.08S $$ NCZ045>047-081-094-103-104-270400- CENTRAL COAST CITY SKY/WX TMP DP RH WIND PRES REMARKS FRISCO CLEAR 81 71 71 S6 30.08S $$ NCZ095-097-098-100-101-270400- SOUTHERN COAST CITY SKY/WX TMP DP RH WIND PRES REMARKS BEAUFORT CLEAR 78 71 79 CALM 30.08R CEDAR ISLAND NOT AVBL JACKSONVILLE CLEAR 75 72 90 S3 30.07S PINEY ISLAND NOT AVBL WILMINGTON CLEAR 76 71 85 CALM 30.08R $$ NCZ011>013-027>030-043-044-078>080-089-090>093-098-270400- COASTAL PLAIN CITY SKY/WX TMP DP RH WIND PRES REMARKS AHOSKIE CLEAR 76 75 98 CALM 30.07S CLINTON CLEAR 80 74 84 CALM 30.08S ELIZABETHTOWN CLEAR 79 74 85 CALM 30.09R GOLDSBORO CLEAR 81 78 91 S5 30.06R GREENVILLE CLEAR 81 75 83 S5 30.09R HAVELOCK CLEAR 76 71 85 S3 30.09S KENANSVILLE CLEAR 75 73 94 CALM 30.08S KINSTON CLEAR 79 74 83 S5 30.09R NEW BERN CLEAR 76 72 87 CALM 30.09S RICHLANDS CLEAR 74 72 93 CALM 30.08S ROCKY MOUNT CLEAR 77 75 93 CALM 30.07R WASHINGTON CLEAR 80 74 83 S7 30.08R WHITEVILLE CLEAR 76 73 90 CALM 30.08R $$ AMZ130-135-150-152-154-156-158-170-250-252-270-ANZ085-086-088-633-658-670-270400- MARINE OBSERVATIONS STATION/POSITION TIME TEMP WIND PRES WAVE SWELL AIR SEA DIR/SP/G HT/PER HT/PER (UTC) (F) (DEG/KT/KT) (MB) (FT/S) (FT/S) CHESAPEAKE LIGHT NOT AVBL 64 E VA BEACH 0250 81 81 200/ 12/ 14 1017.8 2/ 7 2/ 7 DUCK 0200 82 78 1017.7 2 E DUCK 0211 79 N/A 2/ 8 OREGON INLET 0200 82 82 1018.4 13E OREGON INLT 0300 79 N/A 2/ 7 2/ 7 HATTERAS CG 0200 82 83 1018.3 DIAMOND BUOY 0250 82 85 140/ 6/ 6 1018.7 2/ 7 2/ 7 CAPE LOOKOUT 0300 81 130/ 6/ 6 1018.3 BEAUFORT LAB 0200 81 82 1017.8 30 SE NEW RVR IN 0208 82 84 110/ 6/ 10 1018.2 30 SE NEW RVR IN 0225 84 N/A 2/11 2/11 27 SE WRIGHTSVLE 0208 82 84 100/ 8/ 12 1018.3 5 SE WRIGHTSVLE 0208 82 83 120/ 8/ 12 1019.1 225 S CAPE HAT 0250 82 84 90/ 14/ 16 1016.5 5/10 5/10 41 SE CHARLESTON 0250 82 83 80/ 8/ 10 1017.6 3/ 8 2/ 8 $$

USA.gov is the U.S. government's official web portal to all federal, state and local government web resources and services.